Vorticity
10 9 9 9 9 9 8 8 8 8 8 9 9 9 9 8 8 8 8 8 7 7 7 7 7 8 8 8 8 8 8 8 7 7 7 7 7 7 8 7 7 7 7 7 8 8 7 9 10 10 10 10 11 10 10 10 10 10 11 11 12 17 18 15 13 10 9 9 9 11 11 8 8 6 6 9 9 5 3 4 4 5 6 4 4 3 1 1
8 8 8 8 8 8 8 8 8 9 9 9 9 9 9 8 9 8 8 8 7 7 7 7 7 8 7 7 7 7 7 7 7 7 6 7 7 7 8 7 7 7 7 7 8 8 9 9 9 9 9 9 9 10 10 9 10 9 10 10 14 18 16 16 13 8 7 7 9 12 9 8 8 5 7 9 6 5 6 6 5 5 4 2 1 -1 -1 -1
8 7 6 5 4 3 3 4 5 6 6 7 7 7 7 7 6 6 6 6 6 6 6 6 6 6 6 6 6 6 6 6 6 6 6 6 6 7 6 7 7 7 7 7 7 8 9 8 8 9 9 10 9 10 10 10 10 10 10 11 15 17 16 16 11 8 6 4 8 10 8 8 8 6 7 6 5 6 6 5 4 4 1 -1 1 -0 1 0
10 9 8 7 5 4 2 2 1 1 2 3 3 4 4 5 5 5 5 5 5 5 5 6 6 6 6 6 6 6 6 5 5 5 6 6 6 6 6 7 7 8 7 7 8 8 8 8 9 9 9 10 9 11 11 10 10 10 11 12 13 15 17 12 8 11 6 2 8 8 8 8 6 7 7 5 5 6 4 3 0 1 -0 -0 2 1 2 1
11 11 10 9 9 8 8 7 7 5 4 3 3 3 3 4 5 5 5 5 6 5 6 5 6 6 5 5 5 5 5 4 5 5 5 5 5 5 6 7 7 7 7 8 7 7 9 9 9 10 10 10 9 12 10 8 10 11 12 11 12 16 18 10 11 16 6 4 8 6 7 7 7 7 6 6 6 4 3 2 0 2 1 1 2 2 4 3
11 11 11 10 10 9 9 9 9 9 8 7 7 6 5 5 5 5 5 5 5 5 5 5 5 5 5 5 5 5 5 4 5 5 4 4 5 6 7 7 7 7 7 7 7 8 9 9 11 10 10 10 10 11 8 7 10 12 12 11 13 16 18 11 12 15 5 6 7 3 6 8 8 6 5 8 6 4 4 -0 -2 1 1 3 4 4 6 8
9 10 10 11 10 10 10 9 9 9 9 9 9 9 8 7 6 5 5 5 5 5 5 5 5 5 5 5 5 4 4 4 4 4 4 5 6 7 7 7 7 7 7 7 8 9 9 10 11 9 10 10 9 9 6 7 10 14 12 11 13 16 18 11 10 13 7 8 4 0 7 10 7 3 6 9 6 5 5 2 0 1 1 5 4 2 7 10
7 7 8 9 9 10 10 11 10 10 10 9 9 9 8 8 7 6 5 5 5 5 5 5 5 5 5 4 4 5 4 4 4 4 4 5 6 5 6 6 7 7 8 8 8 9 9 10 8 7 9 6 7 8 6 7 11 15 11 10 12 15 18 10 9 14 11 9 1 1 8 10 7 5 7 8 7 6 5 7 5 2 1 4 1 0 7 9
6 6 7 7 8 8 9 9 10 10 10 10 10 9 9 8 7 7 6 6 6 5 6 5 5 5 5 4 5 6 5 5 5 5 4 5 5 5 5 5 6 7 7 8 8 8 8 7 5 6 7 5 10 10 7 10 12 13 11 12 14 16 18 11 9 13 14 11 1 3 7 6 6 5 6 6 6 5 6 7 5 3 -1 -0 0 3 8 9
5 6 6 6 7 7 7 7 7 7 7 8 8 8 8 8 7 6 5 5 4 5 5 5 5 5 5 6 5 6 6 6 6 6 6 6 6 6 6 5 6 6 7 8 8 7 6 6 7 10 10 10 12 8 8 11 10 11 11 12 15 17 19 15 11 12 15 14 6 4 1 2 5 4 6 6 5 5 6 5 2 1 -4 0 6 9 13 11
5 5 5 6 6 7 6 6 6 5 4 4 3 3 3 3 3 3 2 2 2 3 3 4 5 5 6 7 5 6 8 7 8 8 7 8 7 6 6 5 6 6 7 8 6 6 7 8 10 10 8 7 9 7 7 10 8 10 11 11 13 15 18 17 13 13 14 14 12 7 -4 -2 4 4 4 3 4 3 2 1 -2 -1 0 7 9 7 9 11
8 6 6 6 5 6 5 6 5 5 5 4 4 4 3 4 4 5 5 5 5 5 6 6 7 7 6 9 8 6 9 8 8 9 7 7 6 6 5 4 5 6 8 7 6 8 9 9 9 6 5 8 10 7 7 10 9 9 9 10 13 13 16 17 13 14 15 13 15 14 3 -2 -0 5 6 2 3 1 -0 2 -1 3 7 6 4 4 9 11
11 10 9 8 7 7 6 6 5 5 6 6 7 7 7 9 9 10 11 11 12 11 11 10 10 9 6 11 11 4 8 10 8 9 8 7 7 7 7 6 6 7 8 7 6 9 9 8 7 5 8 11 8 7 9 11 9 9 9 9 11 12 14 18 14 13 14 12 15 17 12 6 -3 -1 6 4 5 6 6 7 7 10 8 3 5 9 12 13
11 11 11 11 10 10 10 9 9 9 9 9 10 10 11 12 13 14 14 14 14 13 14 12 12 11 6 12 14 3 4 9 8 10 10 10 12 10 10 8 8 10 10 9 8 9 9 9 9 9 10 8 6 8 9 8 7 8 8 9 11 10 9 15 15 11 10 11 15 15 13 15 4 -3 4 1 1 7 7 10 13 10 6 4 8 13 11 10
11 11 11 12 12 12 13 13 13 12 13 13 13 13 13 13 13 13 12 12 12 11 12 11 12 13 8 12 17 9 6 8 9 11 11 11 12 10 8 8 9 11 10 9 9 9 9 11 13 11 8 6 8 9 7 6 8 8 6 8 11 12 9 10 11 11 11 11 13 14 12 16 14 5 7 3 -1 4 2 7 11 6 8 2 -4 8 11 8
11 11 11 12 12 13 12 12 12 12 12 12 12 11 10 10 9 9 9 8 8 9 9 9 10 10 8 10 14 13 10 9 9 12 14 13 12 9 8 10 11 10 9 7 8 8 8 12 13 9 8 8 9 9 8 6 5 6 6 6 9 13 14 9 8 9 11 11 11 13 11 12 15 12 10 6 1 3 0 1 3 4 7 -8 -17 3 11 8
10 10 10 11 12 12 11 11 10 10 10 9 9 8 7 8 8 7 7 7 7 8 7 7 7 7 7 8 9 10 10 8 9 10 13 13 11 10 10 10 8 8 9 8 9 8 8 12 12 8 9 8 5 6 9 9 6 5 6 6 7 11 15 12 10 10 9 10 10 11 11 10 12 13 14 10 3 2 1 -3 -4 -2 -4 -17 -17 3 10 9
9 10 10 10 10 11 10 10 10 9 10 8 8 8 7 7 8 7 7 8 8 7 6 6 6 6 6 7 7 9 9 8 8 8 11 12 11 12 11 8 7 7 8 9 10 9 9 13 11 9 9 6 4 6 10 11 8 5 5 7 8 8 11 11 11 12 9 7 8 9 10 10 12 13 15 15 11 9 6 2 -3 -7 -9 -14 -12 1 9 11
9 10 10 10 10 11 11 10 10 10 10 9 8 8 7 7 9 9 8 9 9 8 7 7 7 7 7 8 6 7 8 8 9 11 12 12 12 13 11 9 10 9 8 9 11 10 10 11 10 13 13 6 5 9 11 10 7 5 3 5 9 8 9 10 9 10 10 8 7 7 7 8 11 13 14 13 11 10 8 9 7 1 -0 -6 -10 1 11 12
10 10 10 11 11 11 12 11 11 11 11 10 8 9 9 9 10 10 9 9 8 8 8 8 9 8 9 12 11 8 8 6 8 12 13 13 13 12 11 10 10 9 10 11 11 10 10 9 13 18 13 6 7 9 6 5 7 9 5 2 6 9 7 8 10 9 9 8 8 10 10 9 9 9 13 12 9 9 7 9 11 9 8 1 -2 9 14 12
11 10 10 11 11 11 10 10 10 10 11 10 8 9 9 9 9 9 8 8 9 9 9 10 9 7 9 13 14 13 10 9 11 12 11 12 11 12 13 11 8 9 10 9 8 9 9 9 15 20 13 9 11 7 1 3 9 13 13 7 4 8 8 6 9 11 10 10 10 10 12 13 13 11 13 13 12 12 9 8 10 9 12 13 16 18 12 10
12 11 11 11 11 10 9 9 9 9 9 8 7 8 8 8 8 7 7 9 14 14 9 10 10 7 9 10 10 11 9 11 17 14 11 12 13 13 14 11 9 7 7 7 7 8 9 12 17 19 17 15 10 4 4 7 10 12 17 17 8 8 11 4 4 8 8 11 14 12 13 13 15 16 14 12 11 12 13 13 14 16 18 20 20 16 10 11
12 12 12 12 11 10 9 9 9 9 9 8 8 8 8 8 8 8 8 7 14 19 12 8 12 9 9 10 7 9 10 11 16 14 14 18 15 11 11 12 10 6 5 9 11 10 12 16 15 14 16 14 6 6 9 9 10 10 13 20 15 9 13 8 4 7 4 5 11 12 14 15 15 15 13 13 13 13 15 14 14 19 18 15 14 10 10 11
12 12 12 11 11 9 9 9 9 9 9 9 10 9 8 9 8 9 11 8 8 16 15 9 11 9 8 12 12 14 14 14 20 20 18 20 14 9 11 10 8 8 9 11 12 12 16 17 11 12 15 10 6 8 9 8 9 10 11 19 19 10 12 12 8 10 6 3 5 6 9 14 13 11 10 13 16 16 16 15 15 15 11 10 9 5 5 4
12 12 11 10 10 9 8 9 9 9 9 9 10 9 9 9 10 10 11 10 6 10 16 12 11 8 5 10 12 12 10 14 23 21 17 18 13 10 11 8 9 10 10 11 11 13 18 16 10 13 14 9 7 6 6 7 8 10 12 16 19 13 8 10 9 9 7 7 7 4 5 9 9 10 11 11 14 17 16 15 14 12 10 12 12 9 7 7
11 11 10 9 9 8 8 8 8 9 9 9 9 9 9 9 10 11 10 9 6 7 11 8 9 9 6 6 8 11 12 15 19 13 13 17 12 9 9 8 9 10 9 8 8 14 19 14 10 15 15 10 8 5 5 7 7 10 11 11 15 13 6 7 9 8 7 7 7 5 5 7 7 9 8 9 17 21 18 18 18 16 14 13 12 10 9 11
10 9 8 8 8 8 8 8 9 9 8 10 10 9 10 9 10 12 10 9 8 8 10 9 10 11 11 10 11 15 18 17 15 11 13 16 12 8 7 7 9 10 11 9 10 18 20 13 9 12 14 10 5 4 6 7 7 7 8 9 11 11 7 5 6 7 7 7 7 6 5 5 9 8 4 14 25 22 17 16 14 15 13 13 14 12 11 13
9 8 8 8 8 9 8 9 9 9 9 9 10 9 9 9 10 11 10 10 11 11 12 14 14 12 13 13 12 16 18 17 14 10 10 11 9 8 7 7 8 8 7 7 11 16 13 10 10 10 9 7 3 5 7 6 6 7 7 9 8 8 9 6 6 6 5 8 9 9 6 3 9 8 9 26 25 4 1 6 6 9 10 10 15 16 14 12
8 8 8 7 8 8 8 9 9 9 10 10 10 10 10 11 11 11 12 11 10 10 10 11 10 11 13 12 11 15 17 18 15 9 8 9 7 5 5 4 4 4 3 7 11 11 10 10 9 8 7 5 5 7 7 4 5 8 9 9 7 8 9 8 8 7 6 8 10 14 11 4 6 8 16 32 17 -11 -6 7 6 4 6 10 14 15 14 11
8 7 7 7 8 9 9 10 10 10 11 11 11 11 11 12 11 12 13 12 10 11 11 11 11 13 14 12 13 15 17 18 15 10 10 11 7 5 5 4 4 4 4 8 11 8 9 11 10 10 8 6 7 6 5 5 6 7 8 9 9 9 9 9 8 8 9 10 13 18 13 4 5 8 19 28 11 -9 -1 12 8 0 3 10 11 10 11 9
8 7 8 9 10 11 11 11 12 11 11 11 11 10 11 11 11 11 12 11 10 11 12 11 12 13 12 10 11 15 18 17 15 13 12 11 9 7 6 5 5 5 5 13 16 9 8 12 12 13 10 6 6 5 5 7 7 7 8 9 12 12 11 10 9 9 10 10 18 22 12 4 6 9 18 20 7 0 2 9 10 3 1 4 6 10 10 8
10 9 10 11 11 11 11 10 10 10 10 10 10 10 10 10 11 12 11 8 8 11 11 11 12 12 10 7 7 11 16 17 17 17 14 10 9 9 9 9 9 10 9 14 17 10 9 13 12 11 11 8 6 6 7 6 6 7 9 11 13 13 11 11 9 9 12 13 19 22 8 0 3 8 16 14 6 7 6 5 6 3 -1 -4 -1 4 6 9
11 11 11 11 10 11 10 10 9 10 11 11 11 10 10 10 12 13 10 7 7 11 12 12 14 13 10 7 5 7 12 13 13 14 12 10 10 11 11 11 12 14 11 11 12 9 9 12 11 9 10 10 8 9 10 9 8 9 12 15 15 11 8 10 10 8 13 12 15 22 10 -4 0 8 13 13 7 6 7 3 2 4 0 -6 -3 3 6 7
11 10 10 9 10 11 11 11 11 11 12 12 12 11 11 12 13 11 9 6 7 12 13 12 12 12 11 8 5 6 9 10 11 11 10 9 9 10 11 10 9 9 8 8 9 10 9 9 11 9 8 9 8 10 11 10 8 8 10 9 8 9 7 9 11 10 13 12 12 21 13 -4 0 7 9 14 10 6 7 3 2 6 4 3 6 7 5 3
10 9 9 10 11 12 13 13 12 11 11 11 11 11 11 12 11 10 10 9 11 14 15 13 11 10 12 12 10 7 5 6 9 10 9 10 7 4 6 8 7 6 6 7 8 10 11 10 11 9 8 7 7 8 9 9 8 7 7 4 4 12 13 11 12 10 13 16 12 16 14 2 2 4 4 10 10 8 7 3 3 5 6 9 6 5 7 4
10 10 11 12 12 13 13 12 11 10 10 10 11 10 10 10 10 10 10 10 12 14 16 15 13 11 11 12 12 9 4 1 5 8 9 13 11 3 -0 1 3 3 4 6 8 10 11 12 12 11 8 6 5 5 6 8 9 6 9 13 10 10 12 11 15 16 16 18 13 12 16 9 4 2 2 6 8 7 6 5 5 3 2 4 4 9 11 11
11 12 13 13 12 12 11 11 11 11 11 11 11 11 10 10 10 11 11 10 11 11 13 15 14 13 11 9 9 10 8 5 4 5 6 10 12 9 6 4 4 5 5 6 6 7 10 11 11 11 8 6 4 4 6 5 5 6 12 16 11 8 9 6 9 14 14 15 14 12 16 15 7 2 1 3 7 7 6 4 1 -2 -1 3 16 20 7 17
12 12 12 12 11 11 11 11 11 11 11 10 10 11 10 10 9 9 10 11 11 11 11 11 13 14 12 8 7 9 10 8 5 4 3 5 9 10 12 10 7 7 7 7 7 6 9 11 10 9 7 6 6 4 5 5 8 13 14 12 7 8 13 9 6 9 9 12 13 10 13 17 16 9 3 -1 1 5 8 6 2 4 6 3 10 25 24 36
12 11 11 11 11 11 11 11 11 10 9 8 9 9 9 10 9 10 10 10 11 12 12 10 10 13 13 10 8 8 9 7 6 6 5 4 6 9 11 9 7 10 10 9 9 8 11 12 10 10 7 7 10 7 4 5 11 14 12 9 6 4 6 7 5 7 8 8 11 11 10 13 17 17 13 6 2 4 4 0 1 6 10 -1 -17 -0 27 30
11 11 13 12 11 11 11 10 8 7 6 5 6 7 8 10 10 11 13 12 12 12 13 13 10 10 13 13 10 8 9 8 5 5 6 7 5 6 10 10 7 7 7 8 10 11 14 13 10 12 11 8 10 9 7 7 7 8 7 6 6 5 5 2 2 5 7 6 7 10 10 10 13 14 14 15 11 6 1 -0 9 12 12 7 -9 -6 11 6
12 12 12 11 11 10 8 6 5 4 4 4 4 5 9 12 11 13 17 17 16 13 12 13 13 11 11 12 12 9 9 9 8 7 8 9 7 5 7 12 12 9 5 5 7 8 13 13 9 11 13 10 8 7 8 9 5 2 4 5 5 7 7 3 1 1 5 7 6 6 7 7 11 11 10 13 12 10 10 10 16 17 15 16 12 6 2 3
13 12 11 11 9 8 6 5 5 6 6 5 5 6 10 14 14 15 17 18 19 20 17 14 14 15 13 11 10 8 6 6 9 12 11 10 11 10 9 10 13 14 11 8 6 5 9 12 10 9 11 9 8 7 6 7 7 3 2 4 6 7 6 5 4 2 2 6 6 7 8 6 8 10 10 13 14 13 14 13 11 14 23 26 19 17 19 24
12 11 9 8 7 6 7 7 7 8 7 6 6 8 12 19 19 15 13 13 16 21 24 24 20 16 15 14 12 8 5 4 5 8 8 7 8 8 7 7 9 13 14 13 11 7 9 14 11 8 11 10 7 8 8 7 9 9 4 3 6 7 7 6 6 5 4 5 6 7 9 9 10 11 10 9 10 10 10 15 18 17 22 20 11 20 34 27
10 8 7 7 7 7 7 8 8 8 6 6 8 8 14 23 23 13 6 5 7 11 17 24 28 24 19 16 15 13 9 5 5 6 6 6 6 4 5 6 6 8 10 13 14 9 9 14 11 7 10 12 8 6 7 7 7 9 8 5 4 5 8 8 5 3 3 5 7 7 4 7 11 15 16 9 4 5 5 10 18 17 13 10 11 18 15 3
7 7 7 7 7 7 7 8 9 8 8 7 7 9 16 27 26 13 2 -1 1 5 7 11 20 27 26 20 15 16 15 10 4 4 5 7 7 6 5 5 7 8 9 12 16 14 10 9 10 9 9 9 8 7 6 6 5 6 8 5 3 3 5 7 8 5 3 3 4 5 2 3 7 12 17 17 10 6 4 5 10 12 7 4 18 31 13 -3
7 7 7 7 7 7 7 8 8 8 9 7 7 11 20 30 28 16 8 4 3 5 8 8 10 16 25 26 19 14 18 18 9 1 1 5 10 12 9 3 3 5 7 10 17 19 15 9 8 11 11 8 8 8 7 7 6 6 8 6 4 5 4 5 8 7 6 5 2 3 2 1 4 7 10 15 15 9 8 8 6 9 11 5 15 39 33 8
8 8 7 7 7 7 8 9 8 9 10 8 7 13 22 30 28 21 16 12 8 9 13 15 13 11 16 23 23 17 15 21 20 9 0 -2 2 9 13 10 7 6 2 -1 7 16 17 16 12 8 9 10 10 8 6 8 10 7 8 8 4 6 8 7 8 9 8 7 4 4 4 1 2 5 7 9 10 7 7 11 9 6 10 8 5 20 28 11
8 7 8 7 6 7 8 9 8 9 10 7 6 14 25 25 19 17 16 13 13 15 16 16 17 17 16 17 21 21 16 17 22 18 10 2 -6 -8 1 8 7 9 7 -4 -7 2 12 21 20 11 9 10 13 19 11 4 9 10 8 9 5 3 8 9 8 9 9 9 8 5 4 3 1 1 5 7 7 5 4 11 17 12 7 8 5 9 15 10
7 6 6 6 6 7 8 8 9 10 9 7 6 16 26 21 10 10 12 11 11 12 14 18 20 22 22 18 17 20 19 17 18 20 18 12 5 -2 1 6 -2 -9 -4 -2 -7 -6 3 17 22 16 14 9 15 37 33 5 1 9 7 8 9 3 4 6 6 7 8 8 9 8 6 6 5 1 2 4 5 7 5 4 10 13 11 7 8 13 13 8
6 5 7 8 7 8 8 7 9 9 9 8 7 14 24 22 12 10 12 10 7 9 17 25 25 24 24 22 19 19 21 18 16 21 21 14 9 0 -2 13 23 13 0 -2 5 7 2 9 19 19 19 12 11 35 42 13 -1 6 5 4 9 6 4 4 3 4 6 7 8 9 9 7 7 6 5 4 4 5 4 1 1 5 7 2 3 10 8 1
5 6 9 10 8 9 9 7 8 10 10 8 6 10 20 21 15 13 15 12 7 13 25 26 20 20 22 21 20 19 20 19 15 17 20 17 15 8 -7 -6 19 40 34 14 11 17 8 3 11 14 16 16 11 19 28 18 7 8 9 7 8 8 7 6 4 1 3 7 9 11 11 9 9 8 7 7 8 8 6 6 8 8 6 4 5 7 7 10
6 8 10 8 8 10 9 8 9 11 12 9 5 7 14 19 19 17 16 14 8 15 27 23 13 17 22 21 22 20 16 18 19 17 16 14 15 17 10 -9 -19 1 28 28 18 17 13 8 13 15 15 17 17 14 14 15 13 11 12 12 9 8 7 6 7 6 2 2 2 3 6 9 12 12 10 7 6 7 6 7 13 15 13 12 11 10 19 25
Height
5744 5745 5746 5746 5747 5748 5748 5749 5750 5751 5752 5752 5753 5754 5754 5755 5756 5757 5757 5758 5759 5760 5761 5762 5763 5764 5764 5765 5766 5767 5768 5768 5769 5769 5769 5770 5771 5770 5771 5772 5772 5773 5773 5773 5774 5774 5774 5775 5775 5775 5775 5775 5775 5775 5776 5776 5777 5778 5778 5779 5780 5782 5784 5785 5785 5784 5785 5786 5789 5789 5789 5790 5792 5793 5795 5796 5797 5798 5799 5800 5801 5802 5803 5804 5804 5805 5807 5807
5741 5742 5742 5743 5744 5745 5745 5746 5747 5748 5748 5749 5750 5751 5751 5752 5753 5754 5754 5755 5756 5756 5757 5758 5759 5760 5761 5762 5763 5764 5764 5765 5765 5766 5766 5767 5767 5767 5767 5768 5769 5769 5770 5770 5770 5771 5771 5771 5772 5772 5772 5772 5772 5772 5772 5773 5774 5774 5775 5776 5778 5780 5782 5782 5781 5781 5782 5784 5785 5786 5786 5787 5789 5791 5792 5793 5794 5795 5797 5797 5798 5799 5800 5800 5801 5802 5803 5804
5738 5739 5739 5740 5741 5741 5742 5743 5744 5744 5745 5746 5747 5748 5748 5749 5750 5751 5751 5752 5753 5753 5754 5755 5756 5757 5758 5759 5760 5760 5761 5761 5762 5762 5763 5764 5764 5764 5764 5765 5765 5766 5766 5767 5767 5768 5768 5768 5768 5768 5768 5769 5769 5769 5769 5770 5771 5771 5772 5773 5775 5777 5778 5778 5778 5778 5779 5780 5782 5783 5784 5784 5786 5788 5789 5791 5792 5793 5794 5794 5795 5796 5796 5797 5798 5799 5800 5801
5735 5735 5736 5737 5737 5738 5739 5740 5741 5741 5742 5743 5744 5745 5745 5746 5747 5748 5748 5749 5750 5750 5751 5752 5752 5754 5755 5755 5756 5757 5758 5758 5758 5759 5760 5760 5761 5761 5761 5762 5762 5762 5763 5763 5764 5764 5764 5765 5765 5765 5765 5765 5766 5766 5766 5767 5767 5768 5769 5770 5772 5774 5775 5776 5776 5776 5776 5777 5779 5780 5781 5782 5783 5785 5786 5788 5789 5790 5791 5791 5792 5792 5793 5795 5796 5797 5798 5799
5732 5732 5733 5733 5734 5735 5736 5737 5737 5738 5739 5740 5741 5741 5742 5743 5744 5744 5745 5746 5746 5747 5748 5748 5749 5750 5751 5752 5753 5754 5755 5755 5755 5756 5757 5757 5758 5758 5758 5759 5759 5759 5760 5760 5761 5761 5761 5761 5762 5762 5762 5762 5763 5763 5763 5764 5764 5765 5766 5767 5769 5771 5772 5773 5773 5773 5774 5775 5776 5777 5778 5779 5780 5781 5783 5785 5786 5787 5788 5788 5789 5790 5792 5794 5795 5796 5796 5797
5728 5729 5730 5730 5731 5732 5732 5733 5734 5735 5735 5736 5737 5738 5739 5740 5741 5741 5742 5743 5743 5744 5745 5745 5746 5747 5748 5749 5750 5751 5751 5751 5753 5753 5754 5754 5754 5754 5755 5756 5756 5756 5757 5757 5757 5758 5758 5758 5759 5759 5759 5759 5759 5759 5760 5761 5761 5762 5763 5764 5766 5768 5770 5770 5770 5771 5771 5772 5773 5774 5775 5776 5777 5779 5781 5783 5784 5785 5785 5786 5787 5789 5791 5793 5794 5794 5794 5795
5726 5726 5727 5727 5728 5729 5729 5730 5731 5731 5732 5733 5734 5735 5736 5736 5737 5738 5739 5739 5740 5741 5741 5742 5743 5744 5745 5746 5747 5748 5748 5748 5750 5750 5750 5751 5751 5751 5752 5752 5753 5753 5753 5754 5754 5754 5755 5755 5755 5755 5756 5756 5756 5756 5757 5758 5758 5759 5760 5762 5764 5765 5767 5767 5767 5767 5768 5770 5771 5771 5773 5775 5775 5777 5779 5781 5782 5782 5783 5785 5786 5788 5789 5791 5793 5792 5792 5792
5723 5723 5724 5724 5725 5725 5726 5727 5727 5728 5729 5730 5731 5732 5732 5733 5734 5735 5736 5736 5737 5738 5738 5739 5740 5741 5742 5743 5743 5744 5744 5745 5746 5747 5747 5748 5748 5748 5749 5749 5749 5750 5750 5750 5751 5751 5752 5752 5752 5752 5752 5753 5753 5753 5754 5755 5755 5757 5758 5759 5760 5762 5764 5764 5764 5765 5766 5768 5770 5771 5772 5773 5774 5775 5777 5779 5780 5781 5782 5784 5785 5787 5789 5790 5790 5790 5790 5790
5720 5720 5721 5721 5722 5722 5723 5723 5724 5725 5726 5727 5728 5728 5729 5730 5731 5732 5733 5733 5734 5734 5735 5736 5736 5737 5738 5739 5740 5740 5741 5742 5742 5743 5744 5744 5745 5745 5746 5746 5746 5747 5747 5747 5747 5748 5748 5748 5748 5749 5749 5750 5750 5751 5751 5752 5753 5755 5756 5757 5758 5760 5761 5761 5762 5764 5765 5767 5769 5770 5772 5772 5772 5773 5775 5777 5778 5779 5781 5783 5784 5786 5788 5789 5788 5788 5789 5789
5716 5717 5717 5718 5718 5719 5720 5720 5721 5722 5723 5724 5724 5725 5726 5727 5728 5729 5729 5730 5730 5731 5732 5732 5733 5734 5734 5735 5736 5736 5737 5738 5739 5739 5740 5741 5742 5742 5742 5742 5743 5743 5743 5744 5744 5745 5745 5745 5745 5746 5747 5747 5748 5748 5749 5749 5750 5752 5753 5754 5756 5758 5759 5760 5761 5763 5764 5766 5768 5769 5771 5771 5770 5771 5773 5775 5776 5778 5780 5781 5783 5785 5786 5787 5787 5788 5788 5787
5713 5713 5714 5715 5715 5716 5716 5717 5718 5719 5719 5720 5721 5722 5723 5724 5724 5725 5726 5727 5727 5728 5728 5729 5729 5730 5730 5731 5732 5732 5734 5735 5735 5736 5736 5737 5738 5738 5738 5739 5740 5740 5740 5741 5741 5742 5742 5742 5743 5744 5744 5745 5745 5746 5746 5747 5748 5749 5751 5753 5754 5755 5757 5759 5760 5762 5763 5765 5767 5768 5769 5770 5768 5769 5772 5774 5775 5776 5778 5779 5781 5783 5785 5786 5786 5786 5785 5785
5709 5710 5710 5711 5711 5712 5713 5713 5714 5715 5716 5717 5717 5718 5719 5720 5721 5722 5722 5723 5723 5724 5724 5725 5726 5726 5727 5727 5728 5729 5730 5731 5731 5732 5732 5733 5734 5734 5735 5736 5736 5737 5737 5737 5738 5739 5739 5739 5740 5741 5741 5742 5743 5743 5744 5745 5746 5747 5748 5751 5753 5753 5755 5758 5759 5760 5761 5763 5765 5765 5766 5768 5768 5768 5770 5772 5773 5775 5776 5778 5779 5781 5783 5784 5784 5784 5783 5783
5705 5706 5706 5707 5708 5708 5709 5710 5710 5711 5712 5713 5713 5714 5715 5716 5717 5718 5718 5719 5719 5720 5720 5721 5722 5723 5723 5723 5724 5726 5726 5727 5728 5728 5729 5730 5730 5731 5732 5733 5733 5734 5733 5734 5735 5735 5736 5737 5737 5738 5739 5740 5740 5741 5742 5743 5744 5745 5746 5748 5750 5751 5753 5756 5756 5757 5758 5760 5762 5762 5762 5765 5768 5767 5768 5769 5771 5773 5775 5776 5778 5780 5781 5782 5782 5782 5781 5781
5701 5702 5703 5703 5704 5704 5705 5706 5706 5707 5708 5708 5709 5710 5711 5712 5713 5713 5714 5715 5715 5716 5717 5718 5718 5719 5720 5719 5720 5723 5723 5724 5724 5724 5726 5726 5727 5728 5728 5729 5730 5730 5730 5731 5732 5733 5733 5734 5734 5735 5736 5737 5738 5739 5740 5741 5742 5743 5744 5746 5748 5749 5751 5753 5752 5753 5755 5757 5758 5758 5757 5762 5766 5766 5765 5766 5768 5770 5772 5773 5775 5777 5779 5779 5780 5780 5780 5779
5698 5698 5699 5699 5700 5700 5701 5701 5702 5703 5703 5704 5705 5706 5707 5708 5709 5709 5710 5711 5712 5713 5713 5714 5715 5716 5716 5716 5716 5718 5719 5720 5720 5721 5722 5723 5723 5723 5724 5725 5726 5726 5727 5727 5729 5730 5730 5731 5732 5733 5734 5734 5736 5737 5738 5738 5739 5741 5742 5743 5745 5746 5748 5749 5748 5750 5752 5753 5754 5753 5753 5757 5762 5763 5762 5763 5765 5767 5769 5771 5773 5774 5776 5777 5778 5778 5778 5778
5694 5695 5695 5696 5696 5697 5697 5698 5698 5699 5699 5700 5701 5702 5703 5704 5705 5706 5707 5708 5709 5709 5710 5711 5711 5712 5713 5712 5713 5714 5715 5716 5717 5718 5719 5719 5719 5719 5721 5722 5723 5723 5723 5724 5726 5726 5727 5728 5729 5730 5731 5732 5733 5734 5735 5736 5737 5738 5739 5741 5742 5744 5746 5746 5746 5747 5749 5749 5750 5749 5749 5752 5757 5758 5758 5759 5761 5763 5765 5768 5770 5772 5773 5774 5775 5776 5777 5777
5691 5691 5692 5692 5693 5693 5694 5694 5695 5695 5696 5696 5697 5699 5700 5701 5702 5703 5704 5704 5705 5706 5706 5707 5707 5708 5708 5708 5709 5710 5711 5712 5713 5714 5715 5715 5715 5716 5718 5719 5719 5720 5720 5722 5723 5723 5724 5725 5726 5727 5728 5730 5731 5732 5732 5734 5736 5736 5736 5738 5740 5742 5744 5744 5744 5745 5745 5746 5746 5746 5746 5748 5753 5756 5756 5757 5758 5759 5762 5765 5767 5769 5770 5771 5773 5774 5775 5776
5687 5688 5688 5689 5689 5690 5691 5691 5692 5692 5692 5693 5694 5695 5697 5698 5699 5700 5700 5701 5701 5702 5702 5703 5703 5704 5704 5705 5706 5707 5708 5708 5709 5710 5710 5710 5711 5713 5714 5715 5716 5717 5717 5719 5720 5720 5721 5722 5723 5724 5725 5727 5729 5729 5731 5733 5733 5733 5734 5735 5738 5739 5741 5742 5743 5742 5742 5742 5743 5743 5744 5746 5750 5754 5754 5755 5755 5756 5759 5762 5765 5766 5768 5769 5771 5772 5774 5775
5683 5684 5685 5685 5686 5687 5687 5688 5688 5688 5688 5689 5691 5692 5693 5694 5695 5696 5697 5697 5697 5697 5698 5699 5700 5700 5700 5701 5702 5703 5704 5705 5705 5706 5706 5707 5707 5709 5710 5712 5713 5714 5714 5716 5716 5717 5718 5719 5720 5721 5723 5725 5726 5727 5729 5730 5730 5731 5731 5733 5735 5737 5739 5741 5741 5740 5738 5739 5740 5741 5742 5744 5747 5750 5752 5752 5752 5753 5755 5758 5761 5763 5765 5767 5769 5770 5772 5773
5680 5680 5681 5682 5683 5683 5684 5684 5684 5685 5685 5685 5687 5689 5690 5691 5691 5693 5693 5693 5693 5693 5694 5695 5697 5698 5697 5697 5698 5700 5700 5701 5702 5701 5702 5703 5704 5706 5707 5709 5710 5711 5712 5712 5713 5714 5715 5716 5717 5719 5722 5723 5724 5724 5725 5726 5727 5728 5729 5730 5732 5734 5737 5739 5738 5737 5736 5736 5738 5739 5740 5742 5744 5747 5749 5749 5749 5750 5752 5754 5757 5760 5763 5765 5767 5768 5769 5770
5676 5677 5678 5678 5679 5680 5680 5681 5681 5681 5681 5682 5684 5685 5686 5687 5688 5688 5689 5689 5689 5690 5691 5692 5694 5694 5694 5693 5694 5696 5697 5697 5697 5697 5698 5700 5700 5702 5704 5706 5707 5708 5708 5709 5709 5711 5711 5712 5715 5718 5720 5720 5720 5721 5722 5723 5724 5725 5726 5728 5730 5732 5735 5737 5736 5735 5733 5733 5736 5737 5738 5740 5742 5745 5747 5746 5746 5747 5749 5751 5754 5757 5760 5762 5764 5765 5766 5767
5673 5673 5674 5675 5676 5676 5677 5677 5677 5678 5678 5679 5680 5681 5682 5683 5684 5684 5685 5686 5685 5686 5688 5689 5690 5690 5689 5689 5690 5692 5692 5693 5694 5694 5695 5696 5697 5699 5700 5702 5704 5704 5705 5705 5706 5707 5708 5710 5713 5715 5716 5716 5717 5718 5719 5720 5721 5723 5724 5725 5728 5731 5733 5734 5734 5733 5731 5731 5735 5736 5736 5738 5741 5743 5744 5743 5743 5745 5747 5749 5752 5755 5756 5759 5760 5761 5762 5764
5669 5670 5671 5671 5672 5672 5673 5674 5674 5675 5675 5675 5677 5677 5678 5679 5680 5680 5682 5684 5683 5682 5684 5685 5686 5686 5685 5685 5686 5687 5689 5690 5690 5690 5691 5693 5694 5695 5697 5699 5700 5701 5701 5703 5703 5704 5706 5708 5710 5711 5711 5712 5713 5715 5716 5718 5719 5721 5722 5723 5726 5728 5729 5731 5732 5730 5728 5729 5733 5734 5733 5736 5740 5740 5740 5739 5740 5743 5745 5746 5749 5751 5753 5755 5756 5757 5758 5761
5665 5666 5667 5668 5668 5669 5670 5670 5671 5671 5671 5672 5673 5674 5674 5675 5676 5677 5679 5681 5680 5679 5680 5681 5682 5682 5681 5681 5682 5684 5685 5686 5686 5686 5689 5691 5691 5692 5694 5695 5696 5697 5699 5700 5701 5702 5704 5705 5706 5706 5708 5709 5710 5712 5714 5716 5718 5719 5720 5721 5724 5726 5726 5728 5729 5726 5725 5727 5730 5731 5731 5734 5737 5737 5737 5737 5738 5741 5742 5743 5746 5747 5749 5751 5752 5753 5755 5758
5662 5663 5663 5664 5664 5665 5667 5667 5668 5668 5668 5669 5670 5670 5671 5671 5672 5674 5675 5676 5677 5676 5677 5677 5677 5677 5677 5677 5678 5680 5680 5682 5684 5684 5686 5688 5688 5689 5690 5691 5693 5695 5696 5697 5698 5699 5701 5702 5702 5703 5705 5706 5708 5711 5712 5714 5715 5717 5718 5720 5721 5723 5723 5725 5724 5723 5724 5726 5727 5728 5728 5731 5734 5734 5735 5736 5736 5738 5739 5740 5742 5744 5746 5748 5749 5751 5753 5756
5658 5659 5660 5660 5661 5662 5663 5664 5664 5665 5665 5666 5666 5667 5667 5668 5669 5670 5671 5672 5672 5673 5674 5673 5673 5673 5673 5674 5675 5676 5677 5679 5681 5681 5682 5684 5685 5686 5687 5688 5691 5693 5694 5695 5695 5697 5699 5700 5700 5701 5703 5705 5707 5709 5711 5712 5713 5715 5717 5717 5718 5719 5720 5721 5720 5720 5722 5723 5724 5724 5725 5728 5732 5732 5732 5733 5733 5735 5736 5738 5740 5742 5743 5745 5747 5749 5751 5753
5655 5656 5656 5657 5657 5658 5659 5661 5661 5662 5662 5663 5663 5664 5664 5665 5666 5667 5668 5668 5668 5670 5670 5670 5670 5669 5671 5672 5672 5674 5674 5676 5678 5678 5679 5681 5682 5683 5684 5686 5688 5690 5691 5692 5693 5695 5697 5697 5697 5699 5701 5703 5705 5708 5709 5709 5711 5713 5714 5714 5715 5716 5717 5717 5716 5717 5719 5720 5721 5722 5723 5726 5729 5729 5730 5731 5731 5733 5735 5736 5738 5740 5742 5743 5745 5747 5749 5751
5652 5652 5652 5654 5654 5655 5656 5658 5658 5658 5659 5660 5660 5661 5661 5662 5663 5664 5664 5664 5665 5666 5665 5666 5666 5667 5668 5669 5670 5671 5671 5672 5673 5674 5676 5677 5678 5680 5681 5684 5686 5687 5688 5689 5691 5693 5694 5694 5694 5696 5698 5701 5704 5705 5705 5707 5709 5710 5710 5710 5712 5712 5713 5713 5713 5715 5716 5717 5719 5721 5721 5723 5726 5727 5728 5729 5730 5732 5733 5735 5737 5738 5740 5741 5743 5745 5747 5749
5649 5649 5649 5651 5652 5652 5653 5654 5655 5655 5656 5657 5657 5657 5658 5659 5660 5660 5661 5661 5662 5662 5662 5662 5663 5664 5665 5666 5667 5668 5668 5669 5670 5671 5672 5673 5675 5677 5679 5681 5682 5683 5684 5686 5688 5690 5690 5691 5692 5693 5695 5699 5702 5702 5702 5705 5707 5707 5707 5708 5709 5709 5710 5710 5711 5713 5713 5714 5718 5720 5720 5721 5723 5724 5725 5727 5728 5730 5732 5734 5736 5737 5738 5740 5742 5743 5745 5747
5645 5645 5646 5648 5649 5649 5649 5651 5651 5652 5653 5654 5654 5655 5655 5656 5656 5657 5658 5658 5659 5659 5659 5659 5660 5661 5662 5663 5664 5665 5666 5667 5667 5668 5669 5671 5673 5674 5676 5677 5678 5680 5681 5683 5686 5687 5688 5689 5690 5692 5695 5698 5699 5699 5701 5704 5704 5704 5705 5706 5707 5708 5709 5709 5709 5711 5710 5713 5718 5719 5718 5719 5720 5721 5724 5725 5726 5728 5730 5732 5734 5735 5737 5739 5740 5742 5743 5744
5642 5642 5643 5645 5646 5646 5646 5647 5648 5649 5650 5651 5651 5652 5652 5653 5653 5654 5655 5655 5655 5655 5656 5656 5658 5659 5660 5660 5661 5662 5663 5664 5665 5665 5667 5669 5670 5671 5673 5674 5676 5677 5679 5682 5685 5685 5686 5687 5688 5691 5694 5696 5696 5697 5700 5701 5702 5703 5703 5704 5705 5706 5707 5707 5707 5708 5708 5713 5717 5716 5715 5716 5717 5719 5722 5723 5725 5727 5728 5730 5732 5734 5735 5737 5738 5740 5741 5742
5640 5640 5641 5642 5643 5643 5644 5644 5645 5646 5647 5648 5648 5649 5649 5650 5651 5652 5653 5652 5652 5652 5653 5654 5655 5657 5657 5658 5658 5659 5660 5661 5662 5663 5665 5666 5668 5670 5672 5673 5674 5676 5678 5681 5684 5683 5684 5685 5687 5690 5692 5693 5694 5696 5698 5699 5700 5701 5701 5702 5703 5704 5704 5705 5705 5706 5708 5712 5714 5712 5712 5713 5714 5717 5720 5722 5723 5725 5727 5728 5730 5732 5733 5735 5736 5737 5737 5737
5637 5637 5638 5639 5640 5641 5641 5642 5642 5643 5644 5645 5645 5646 5646 5647 5648 5649 5649 5648 5648 5650 5651 5652 5653 5654 5655 5656 5656 5657 5659 5659 5660 5661 5662 5664 5665 5667 5669 5670 5671 5673 5675 5678 5680 5680 5681 5683 5685 5688 5690 5691 5693 5694 5696 5697 5698 5699 5699 5700 5701 5701 5702 5703 5703 5704 5707 5709 5710 5710 5710 5711 5713 5716 5718 5721 5722 5723 5725 5726 5728 5730 5731 5733 5733 5734 5733 5732
5635 5635 5635 5636 5637 5638 5639 5639 5640 5640 5641 5642 5642 5643 5643 5644 5645 5645 5645 5645 5646 5648 5649 5650 5651 5652 5653 5654 5654 5655 5657 5657 5658 5659 5660 5661 5663 5664 5666 5667 5669 5670 5672 5675 5677 5678 5679 5680 5683 5686 5688 5689 5691 5693 5694 5694 5695 5696 5697 5697 5698 5699 5700 5701 5701 5702 5704 5705 5706 5707 5708 5709 5711 5714 5716 5719 5721 5722 5723 5725 5726 5728 5729 5730 5731 5730 5730 5730
5632 5633 5633 5634 5635 5636 5636 5637 5637 5638 5638 5639 5639 5640 5641 5641 5642 5642 5642 5643 5644 5646 5647 5648 5648 5649 5650 5651 5653 5654 5655 5655 5656 5657 5658 5660 5661 5663 5664 5666 5667 5669 5670 5672 5674 5676 5678 5679 5681 5683 5685 5687 5689 5690 5691 5691 5692 5693 5694 5695 5697 5698 5698 5699 5699 5700 5701 5702 5703 5704 5706 5708 5710 5712 5715 5717 5719 5720 5721 5722 5724 5725 5726 5727 5728 5727 5728 5730
5630 5630 5631 5632 5632 5633 5634 5634 5635 5635 5636 5636 5637 5638 5638 5638 5639 5639 5640 5641 5642 5644 5645 5646 5646 5646 5647 5648 5650 5652 5653 5653 5654 5655 5656 5658 5660 5661 5663 5664 5665 5666 5668 5670 5672 5674 5676 5677 5679 5681 5683 5684 5686 5687 5688 5689 5690 5691 5692 5694 5696 5696 5696 5696 5697 5698 5699 5700 5701 5702 5704 5707 5709 5711 5713 5715 5717 5718 5719 5720 5720 5720 5721 5723 5725 5725 5726 5728
5628 5628 5629 5630 5630 5631 5631 5632 5632 5633 5633 5634 5635 5635 5636 5636 5636 5637 5638 5638 5640 5641 5642 5643 5643 5644 5644 5645 5647 5649 5650 5651 5652 5653 5654 5655 5657 5659 5661 5662 5663 5664 5666 5667 5669 5670 5673 5675 5677 5678 5680 5682 5683 5684 5685 5687 5688 5690 5691 5693 5693 5693 5693 5694 5695 5696 5697 5698 5699 5701 5703 5705 5707 5708 5711 5713 5715 5716 5716 5717 5717 5717 5718 5719 5722 5722 5721 5723
5626 5627 5627 5628 5628 5629 5629 5630 5630 5631 5631 5632 5633 5633 5633 5633 5634 5634 5635 5636 5637 5638 5639 5640 5640 5641 5642 5643 5644 5646 5648 5649 5649 5650 5652 5653 5654 5657 5659 5660 5661 5663 5664 5665 5666 5667 5670 5673 5674 5675 5678 5679 5680 5681 5683 5685 5686 5688 5689 5690 5690 5691 5692 5693 5694 5694 5695 5696 5698 5699 5701 5703 5705 5707 5709 5711 5712 5713 5714 5715 5715 5715 5717 5717 5718 5718 5716 5717
5624 5625 5625 5626 5626 5627 5627 5628 5629 5629 5630 5630 5630 5631 5631 5631 5631 5631 5632 5633 5633 5635 5636 5637 5637 5638 5639 5640 5641 5642 5645 5646 5647 5648 5649 5651 5652 5654 5656 5658 5659 5661 5662 5663 5664 5665 5668 5671 5672 5673 5675 5677 5678 5679 5681 5683 5684 5686 5686 5687 5688 5689 5690 5691 5692 5693 5694 5695 5696 5698 5699 5701 5704 5705 5707 5708 5709 5710 5711 5713 5714 5714 5715 5715 5715 5715 5715 5715
5623 5623 5624 5624 5625 5625 5626 5626 5627 5628 5628 5628 5628 5628 5628 5628 5628 5628 5629 5629 5630 5631 5632 5633 5634 5635 5636 5637 5638 5640 5641 5643 5644 5646 5647 5649 5650 5651 5653 5655 5656 5658 5659 5660 5661 5663 5666 5669 5670 5670 5672 5674 5675 5677 5679 5680 5682 5683 5684 5685 5686 5687 5688 5689 5690 5691 5692 5693 5694 5695 5697 5699 5702 5703 5704 5705 5706 5708 5709 5710 5712 5712 5713 5713 5713 5714 5715 5715
5621 5621 5622 5623 5623 5624 5624 5625 5626 5626 5626 5626 5626 5626 5625 5625 5624 5624 5625 5626 5626 5627 5628 5629 5630 5631 5633 5634 5636 5637 5638 5640 5641 5643 5645 5646 5647 5649 5650 5651 5653 5654 5656 5657 5659 5661 5663 5666 5668 5668 5669 5671 5672 5674 5676 5678 5680 5681 5681 5683 5684 5685 5686 5687 5688 5689 5690 5691 5692 5693 5695 5697 5700 5701 5702 5703 5704 5706 5706 5707 5709 5710 5710 5710 5710 5711 5712 5713
5619 5620 5621 5621 5622 5623 5623 5624 5624 5624 5624 5624 5623 5623 5622 5622 5621 5621 5622 5622 5623 5623 5624 5625 5626 5628 5629 5630 5632 5634 5636 5637 5638 5640 5642 5643 5645 5646 5647 5648 5650 5651 5653 5654 5656 5658 5660 5663 5665 5666 5666 5668 5670 5671 5674 5676 5677 5678 5679 5681 5682 5683 5684 5685 5687 5688 5689 5690 5691 5692 5693 5695 5697 5699 5700 5701 5703 5703 5704 5704 5706 5707 5707 5707 5708 5709 5709 5710
5618 5619 5620 5620 5621 5621 5621 5622 5622 5622 5621 5621 5620 5619 5619 5619 5618 5618 5618 5619 5619 5620 5620 5621 5623 5624 5626 5627 5628 5631 5632 5634 5635 5637 5639 5640 5642 5644 5645 5646 5647 5649 5650 5652 5654 5656 5658 5660 5663 5664 5664 5666 5667 5669 5671 5673 5675 5676 5677 5679 5680 5681 5682 5684 5685 5686 5687 5688 5689 5690 5691 5693 5695 5697 5698 5700 5701 5701 5702 5702 5703 5704 5704 5705 5706 5707 5708 5709
5617 5618 5618 5619 5619 5620 5620 5620 5620 5619 5619 5618 5617 5617 5616 5615 5615 5615 5615 5616 5617 5617 5618 5618 5619 5620 5621 5623 5625 5627 5628 5630 5632 5634 5636 5638 5639 5641 5643 5644 5645 5646 5648 5650 5652 5653 5655 5658 5660 5662 5662 5663 5664 5666 5668 5670 5672 5673 5675 5676 5677 5678 5680 5681 5683 5684 5685 5686 5687 5688 5689 5691 5693 5694 5696 5697 5698 5699 5700 5700 5701 5701 5702 5703 5705 5706 5707 5708
5616 5616 5617 5617 5618 5618 5618 5618 5618 5617 5617 5616 5615 5614 5613 5612 5612 5612 5612 5613 5614 5614 5615 5615 5615 5616 5617 5618 5621 5623 5624 5627 5629 5630 5633 5635 5637 5638 5640 5642 5643 5644 5646 5648 5649 5651 5653 5655 5657 5658 5659 5661 5662 5663 5665 5668 5670 5671 5672 5674 5675 5676 5678 5679 5680 5682 5683 5684 5685 5686 5687 5690 5691 5692 5693 5695 5696 5697 5698 5698 5699 5699 5700 5701 5702 5703 5705 5706
5615 5615 5615 5616 5617 5617 5617 5616 5616 5615 5615 5614 5613 5612 5610 5609 5608 5609 5609 5610 5611 5611 5611 5611 5612 5612 5613 5614 5616 5618 5620 5622 5624 5627 5629 5632 5634 5636 5638 5639 5641 5642 5644 5645 5647 5648 5650 5652 5654 5655 5657 5658 5659 5661 5663 5665 5667 5668 5670 5672 5673 5674 5676 5677 5678 5679 5681 5682 5683 5684 5686 5688 5689 5690 5691 5692 5693 5695 5696 5696 5697 5698 5698 5699 5700 5700 5702 5704
5613 5614 5614 5615 5615 5615 5615 5614 5614 5613 5613 5612 5611 5609 5608 5607 5606 5606 5607 5607 5607 5608 5608 5608 5608 5608 5609 5610 5611 5614 5616 5618 5620 5623 5626 5629 5631 5633 5634 5636 5638 5640 5642 5643 5644 5646 5647 5649 5650 5652 5654 5655 5657 5659 5660 5662 5664 5665 5667 5669 5671 5672 5673 5674 5676 5677 5678 5680 5681 5682 5684 5685 5687 5688 5689 5690 5691 5693 5694 5695 5695 5696 5697 5698 5699 5699 5700 5702
5612 5613 5613 5614 5614 5614 5613 5613 5613 5612 5611 5610 5608 5607 5605 5605 5604 5604 5604 5604 5604 5604 5604 5604 5604 5604 5605 5606 5607 5609 5611 5613 5616 5619 5622 5625 5629 5631 5631 5633 5635 5637 5639 5640 5642 5644 5646 5647 5648 5650 5651 5652 5653 5655 5657 5659 5661 5662 5664 5666 5668 5669 5671 5672 5673 5674 5675 5677 5678 5680 5682 5683 5685 5686 5687 5688 5690 5691 5692 5693 5694 5695 5696 5697 5697 5698 5699 5700
5611 5612 5612 5613 5612 5612 5612 5612 5611 5610 5609 5608 5606 5605 5603 5603 5602 5602 5602 5602 5601 5601 5601 5600 5600 5600 5601 5602 5603 5604 5606 5609 5612 5615 5619 5623 5626 5628 5629 5630 5633 5635 5637 5638 5640 5642 5644 5645 5646 5647 5648 5649 5650 5651 5652 5655 5657 5659 5661 5663 5665 5667 5668 5669 5670 5671 5672 5674 5676 5677 5679 5680 5682 5684 5685 5687 5688 5689 5690 5691 5692 5693 5694 5694 5696 5697 5698 5698
5611 5611 5612 5612 5611 5611 5611 5610 5609 5608 5607 5606 5605 5603 5602 5601 5601 5600 5599 5599 5598 5598 5598 5597 5597 5597 5598 5598 5599 5601 5603 5606 5609 5612 5615 5619 5621 5624 5626 5628 5630 5632 5634 5635 5638 5640 5641 5642 5643 5644 5645 5646 5647 5648 5649 5652 5654 5656 5658 5660 5662 5664 5665 5667 5668 5669 5670 5671 5673 5674 5676 5678 5679 5681 5683 5684 5686 5687 5688 5690 5690 5691 5691 5692 5693 5695 5696 5697
5610 5610 5611 5610 5610 5610 5609 5609 5608 5607 5606 5605 5604 5602 5601 5600 5599 5598 5597 5597 5596 5596 5595 5594 5594 5595 5596 5596 5597 5598 5600 5603 5606 5609 5612 5614 5617 5620 5623 5626 5628 5629 5630 5632 5635 5637 5639 5640 5640 5641 5642 5644 5645 5646 5648 5650 5651 5653 5655 5657 5659 5661 5662 5664 5665 5666 5667 5668 5670 5671 5673 5675 5676 5678 5679 5681 5683 5685 5686 5687 5688 5689 5689 5689 5690 5692 5694 5694
5609 5609 5609 5609 5608 5608 5608 5607 5607 5606 5605 5604 5603 5601 5600 5599 5597 5596 5596 5595 5594 5594 5593 5592 5592 5593 5594 5594 5595 5596 5598 5601 5604 5606 5608 5611 5614 5617 5620 5623 5626 5627 5628 5630 5632 5634 5636 5637 5638 5638 5640 5641 5642 5643 5645 5647 5648 5649 5651 5653 5655 5657 5658 5660 5662 5663 5664 5666 5667 5668 5670 5672 5673 5675 5676 5678 5679 5681 5683 5684 5685 5686 5687 5687 5688 5690 5690 5691